�������l�o���
Date,Time,MP-1(��Sv/h),MP-2(��Sv/h),MP-3(��Sv/h),MP-4(��Sv/h),MP-5(��Sv/h),MP-6(��Sv/h),MP-7(��Sv/h),MP-8(��Sv/h),����,����(m/s),���J
2017/01/16,00:00,1.075,1.796,1.169,2.036,1.403,0.558,1.026,0.951,���k��,7.5,��
2017/01/16,00:10,1.074,1.793,1.167,2.035,1.405,0.557,1.029,0.953,���k��,7.7,��
2017/01/16,00:20,1.076,1.795,1.172,2.037,1.405,0.558,1.025,0.953,���k��,9.2,��
2017/01/16,00:30,1.075,1.795,1.171,2.034,1.405,0.557,1.027,0.955,���k��,6.8,��
2017/01/16,00:40,1.079,1.793,1.172,2.034,1.406,0.556,1.028,0.954,���k��,7.8,��
2017/01/16,00:50,1.076,1.796,1.171,2.035,1.402,0.556,1.028,0.953,���k��,10.9,��
2017/01/16,01:00,1.077,1.795,1.168,2.035,1.406,0.557,1.027,0.955,���k��,9.8,��
2017/01/16,01:10,1.075,1.793,1.170,2.037,1.409,0.557,1.027,0.954,���k��,9.4,��
2017/01/16,01:20,1.076,1.797,1.168,2.036,1.408,0.557,1.027,0.954,���k��,9.9,��
2017/01/16,01:30,1.078,1.797,1.170,2.036,1.407,0.557,1.026,0.953,��,9.2,��
2017/01/16,01:40,1.077,1.794,1.169,2.035,1.406,0.557,1.027,0.954,���k��,9.4,��
2017/01/16,01:50,1.077,1.796,1.170,2.037,1.406,0.559,1.025,0.953,���k��,6.2,��
2017/01/16,02:00,1.076,1.792,1.169,2.035,1.407,0.557,1.028,0.954,�k��,5.3,��
2017/01/16,02:10,1.078,1.795,1.172,2.038,1.405,0.558,1.029,0.955,�k��,7.4,��
2017/01/16,02:20,1.076,1.794,1.172,2.036,1.406,0.561,1.026,0.953,�k��,7.4,��
2017/01/16,02:30,1.077,1.795,1.172,2.037,1.408,0.560,1.028,0.954,���k��,7.9,��
2017/01/16,02:40,1.075,1.795,1.173,2.036,1.408,0.559,1.029,0.954,���k��,7.4,��
2017/01/16,02:50,1.078,1.795,1.176,2.036,1.409,0.560,1.027,0.953,�k��,7.4,��
2017/01/16,03:00,1.078,1.798,1.174,2.039,1.406,0.560,1.026,0.953,�k��,5.5,��
2017/01/16,03:10,1.078,1.797,1.173,2.039,1.406,0.561,1.028,0.953,�k��,4.6,��
2017/01/16,03:20,1.080,1.795,1.171,2.034,1.406,0.560,1.025,0.954,�k��,4.9,��
2017/01/16,03:30,1.079,1.796,1.172,2.039,1.410,0.559,1.028,0.957,�k��,4.3,��
2017/01/16,03:40,1.076,1.796,1.175,2.039,1.406,0.559,1.027,0.954,�k��,4.3,��
2017/01/16,03:50,1.079,1.795,1.174,2.034,1.404,0.559,1.026,0.954,�k��,3.9,��
2017/01/16,04:00,1.079,1.795,1.171,2.038,1.406,0.559,1.027,0.955,�k��,4.4,��
2017/01/16,04:10,1.078,1.790,1.171,2.038,1.405,0.559,1.028,0.953,���k��,3.9,��
2017/01/16,04:20,1.076,1.794,1.175,2.037,1.404,0.558,1.028,0.956,���k��,3.7,��
2017/01/16,04:30,1.076,1.791,1.170,2.036,1.403,0.557,1.027,0.954,��,4.4,��
2017/01/16,04:40,1.077,1.791,1.172,2.035,1.404,0.558,1.027,0.953,��,3.9,��
2017/01/16,04:50,1.076,1.790,1.172,2.037,1.408,0.559,1.026,0.952,���k��,3.6,��
2017/01/16,05:00,1.076,1.794,1.171,2.034,1.406,0.557,1.025,0.952,���k��,3.9,��
2017/01/16,05:10,1.074,1.792,1.169,2.035,1.402,0.558,1.026,0.953,���k��,5.1,��
2017/01/16,05:20,1.075,1.793,1.173,2.036,1.407,0.558,1.027,0.952,���k��,6.2,��
2017/01/16,05:30,1.077,1.791,1.168,2.031,1.407,0.557,1.027,0.952,���k��,6.2,��
2017/01/16,05:40,1.075,1.791,1.174,2.035,1.404,0.558,1.029,0.952,���k��,6.8,��
2017/01/16,05:50,1.076,1.792,1.171,2.034,1.405,0.558,1.027,0.952,���k��,7.4,��
2017/01/16,06:00,1.073,1.792,1.171,2.031,1.405,0.556,1.025,0.953,���k��,6.5,��
2017/01/16,06:10,1.074,1.794,1.170,2.037,1.404,0.557,1.028,0.953,���k��,7.3,��
2017/01/16,06:20,1.074,1.792,1.170,2.036,1.407,0.557,1.026,0.953,���k��,7.6,��
2017/01/16,06:30,1.073,1.794,1.170,2.033,1.406,0.558,1.028,0.952,���k��,6.1,��
2017/01/16,06:40,1.076,1.792,1.170,2.035,1.405,0.559,1.027,0.951,�k��,3.8,��
2017/01/16,06:50,1.075,1.793,1.172,2.034,1.403,0.561,1.027,0.952,���k��,4.2,��
2017/01/16,07:00,1.075,1.792,1.169,2.035,1.405,0.558,1.026,0.953,��,5.9,��
2017/01/16,07:10,1.074,1.790,1.171,2.035,1.402,0.557,1.028,0.952,��,6.5,��
2017/01/16,07:20,1.075,1.792,1.169,2.036,1.404,0.557,1.028,0.952,��,6.5,��
2017/01/16,07:30,1.074,1.792,1.169,2.035,1.400,0.558,1.025,0.952,��,6.8,��
2017/01/16,07:40,1.075,1.791,1.169,2.034,1.401,0.559,1.025,0.953,���쐼,6.4,��
2017/01/16,07:50,1.074,1.792,1.168,2.038,1.402,0.558,1.026,0.954,���쐼,5.4,��
2017/01/16,08:00,1.075,1.793,1.170,2.033,1.400,0.559,1.027,0.952,��,3.8,��
2017/01/16,08:10,1.076,1.790,1.170,2.035,1.404,0.557,1.027,0.954,���k��,3.1,��
2017/01/16,08:20,1.075,1.793,1.172,2.038,1.407,0.557,1.027,0.952,���k��,4.1,��
2017/01/16,08:30,1.078,1.789,1.172,2.036,1.403,0.558,1.029,0.952,��,4.9,��
2017/01/16,08:40,1.077,1.791,1.173,2.035,1.402,0.557,1.029,0.954,��,10.2,��
2017/01/16,08:50,1.077,1.791,1.169,2.036,1.403,0.557,1.029,0.953,��,9.0,��
2017/01/16,09:00,1.075,1.792,1.174,2.036,1.401,0.557,1.025,0.956,��,9.2,��
2017/01/16,09:10,1.077,1.794,1.173,2.036,1.404,0.558,1.029,0.952,��,8.3,��
2017/01/16,09:20,1.078,1.792,1.174,2.040,1.404,0.558,1.028,0.955,��,7.4,��
2017/01/16,09:30,1.080,1.795,1.173,2.039,1.406,0.558,1.028,0.952,��,6.7,��
2017/01/16,09:40,1.079,1.797,1.172,2.041,1.407,0.558,1.028,0.954,���k��,6.7,��
2017/01/16,09:50,1.079,1.798,1.172,2.038,1.407,0.559,1.026,0.955,���k��,5.8,��
2017/01/16,10:00,1.081,1.797,1.175,2.040,1.406,0.559,1.028,0.953,���k��,6.5,��
2017/01/16,10:10,1.080,1.796,1.174,2.042,1.407,0.560,1.028,0.954,���k��,5.2,��
2017/01/16,10:20,1.082,1.796,1.173,2.037,1.407,0.560,1.029,0.954,���k��,5.9,��
2017/01/16,10:30,1.081,1.793,1.173,2.038,1.411,0.558,1.029,0.954,���k��,8.2,��
2017/01/16,10:40,1.083,1.792,1.175,2.039,1.410,0.560,1.029,0.953,�k��,7.0,��
2017/01/16,10:50,1.080,1.788,1.177,2.041,1.411,0.559,1.028,0.956,�k��,7.2,��
2017/01/16,11:00,1.083,1.788,1.175,2.038,1.412,0.559,1.030,0.953,���k��,6.0,��
2017/01/16,11:10,1.081,1.789,1.177,2.044,1.411,0.559,1.027,0.954,���k��,7.2,��
2017/01/16,11:20,1.082,1.789,1.174,2.043,1.414,0.561,1.026,0.957,�k��,9.8,��
2017/01/16,11:30,1.081,1.790,1.174,2.044,1.411,0.561,1.027,0.957,�k��,9.3,��
2017/01/16,11:40,1.086,1.794,1.177,2.042,1.415,0.561,1.029,0.954,���k��,6.6,��
2017/01/16,11:50,1.086,1.796,1.177,2.039,1.415,0.561,1.030,0.956,���k��,7.4,��
2017/01/16,12:00,1.085,1.793,1.174,2.044,1.416,0.561,1.030,0.955,�k��,6.7,��
2017/01/16,12:10,1.080,1.796,1.177,2.042,1.413,0.562,1.029,0.956,�k��,8.5,��
2017/01/16,12:20,1.086,1.796,1.175,2.041,1.415,0.561,1.029,0.956,�k��,9.3,��
2017/01/16,12:30,1.082,1.796,1.175,2.044,1.416,0.561,1.031,0.954,���k��,8.0,��
2017/01/16,12:40,1.085,1.798,1.180,2.044,1.416,0.562,1.029,0.956,�k��,5.7,��
2017/01/16,12:50,1.086,1.798,1.177,2.045,1.417,0.562,1.030,0.955,���k��,7.8,��
2017/01/16,13:00,1.087,1.799,1.177,2.045,1.417,0.561,1.031,0.954,���k��,7.8,��
2017/01/16,13:10,1.088,1.802,1.176,2.045,1.419,0.562,1.031,0.956,��,8.5,��
2017/01/16,13:20,1.088,1.803,1.177,2.043,1.416,0.562,1.031,0.957,���k��,9.6,��
2017/01/16,13:30,1.088,1.803,1.178,2.044,1.419,0.562,1.031,0.956,���k��,7.1,��
2017/01/16,13:40,1.086,1.800,1.178,2.044,1.419,0.561,1.029,0.957,��,7.1,��
2017/01/16,13:50,1.088,1.804,1.176,2.045,1.420,0.562,1.032,0.956,���k��,9.6,��
2017/01/16,14:00,1.089,1.802,1.176,2.045,1.419,0.561,1.033,0.955,���k��,7.6,��
2017/01/16,14:10,1.089,1.802,1.179,2.042,1.419,0.563,1.034,0.954,���k��,5.5,��
2017/01/16,14:20,1.089,1.797,1.178,2.046,1.418,0.562,1.032,0.955,���k��,8.0,��
2017/01/16,14:30,1.091,1.797,1.178,2.045,1.421,0.562,1.031,0.957,�k��,8.1,��
2017/01/16,14:40,1.088,1.799,1.179,2.046,1.420,0.561,1.032,0.957,�k��,5.6,��
2017/01/16,14:50,1.088,1.799,1.179,2.046,1.422,0.562,1.031,0.958,���k��,4.8,��
2017/01/16,15:00,1.088,1.799,1.178,2.048,1.422,0.563,1.032,0.956,���k��,6.0,��
2017/01/16,15:10,1.090,1.803,1.181,2.045,1.417,0.562,1.031,0.957,���k��,5.1,��
2017/01/16,15:20,1.090,1.803,1.179,2.046,1.422,0.562,1.032,0.955,���k��,5.8,��
2017/01/16,15:30,1.089,1.802,1.181,2.047,1.421,0.562,1.033,0.955,��,3.4,��
2017/01/16,15:40,1.091,1.805,1.180,2.041,1.418,0.563,1.029,0.957,�k��,7.7,��
2017/01/16,15:50,1.088,1.807,1.179,2.046,1.419,0.563,1.032,0.954,�k��,8.7,��
2017/01/16,16:00,1.089,1.806,1.179,2.046,1.420,0.562,1.030,0.956,���k��,7.7,��
2017/01/16,16:10,1.089,1.804,1.181,2.045,1.420,0.561,1.032,0.957,���k��,7.9,��
2017/01/16,16:20,1.088,1.802,1.180,2.048,1.419,0.562,1.030,0.955,���k��,7.0,��
2017/01/16,16:30,1.086,1.804,1.181,2.046,1.421,0.563,1.032,0.957,���k��,10.3,��
2017/01/16,16:40,1.086,1.804,1.179,2.046,1.419,0.562,1.031,0.956,���k��,9.7,��
2017/01/16,16:50,1.087,1.802,1.180,2.045,1.421,0.561,1.031,0.955,���k��,9.9,��
2017/01/16,17:00,1.088,1.804,1.179,2.044,1.419,0.561,1.031,0.955,���k��,10.7,��
2017/01/16,17:10,1.087,1.806,1.177,2.043,1.420,0.560,1.030,0.956,���k��,8.8,��
2017/01/16,17:20,1.085,1.805,1.179,2.047,1.418,0.563,1.032,0.957,�k��,11.3,��
2017/01/16,17:30,1.087,1.803,1.179,2.045,1.419,0.561,1.030,0.955,�k��,8.5,��
2017/01/16,17:40,1.084,1.804,1.179,2.046,1.417,0.561,1.032,0.955,�k��,8.0,��
2017/01/16,17:50,1.086,1.801,1.177,2.047,1.420,0.561,1.029,0.956,�k��,7.0,��
2017/01/16,18:00,1.086,1.802,1.180,2.048,1.419,0.561,1.028,0.955,�k��,7.7,��
2017/01/16,18:10,1.085,1.805,1.179,2.043,1.417,0.565,1.032,0.955,�k��,8.9,��
2017/01/16,18:20,1.083,1.802,1.177,2.044,1.419,0.561,1.032,0.955,���k��,9.4,��
2017/01/16,18:30,1.086,1.802,1.179,2.048,1.416,0.562,1.031,0.955,���k��,8.1,��
2017/01/16,18:40,1.085,1.806,1.178,2.046,1.418,0.560,1.029,0.954,�k��,6.4,��
2017/01/16,18:50,1.084,1.801,1.178,2.046,1.417,0.562,1.028,0.956,�k��,6.4,��
2017/01/16,19:00,1.086,1.806,1.176,2.045,1.419,0.561,1.029,0.955,�k��,6.9,��
2017/01/16,19:10,1.084,1.804,1.179,2.045,1.419,0.561,1.030,0.955,�k��,8.6,��
2017/01/16,19:20,1.083,1.804,1.179,2.045,1.417,0.561,1.029,0.955,�k��,7.7,��
2017/01/16,19:30,1.086,1.802,1.178,2.044,1.419,0.562,1.029,0.954,�k��,10.0,��
2017/01/16,19:40,1.086,1.803,1.178,2.046,1.418,0.562,1.028,0.956,�k��,8.7,��
2017/01/16,19:50,1.083,1.801,1.178,2.047,1.418,0.562,1.031,0.954,�k��,8.5,��
2017/01/16,20:00,1.083,1.805,1.176,2.043,1.421,0.562,1.027,0.955,�k��,7.9,��
2017/01/16,20:10,1.084,1.801,1.179,2.045,1.418,0.560,1.029,0.955,�k��,8.4,��
2017/01/16,20:20,1.085,1.803,1.177,2.045,1.417,0.562,1.027,0.956,�k��,8.1,��
2017/01/16,20:30,1.084,1.804,1.179,2.047,1.415,0.561,1.028,0.956,�k��,8.1,��
2017/01/16,20:40,1.085,1.800,1.178,2.044,1.416,0.561,1.029,0.955,�k��,8.5,��
2017/01/16,20:50,1.082,1.803,1.179,2.046,1.415,0.562,1.029,0.953,�k��,6.7,��
2017/01/16,21:00,1.082,1.803,1.176,2.045,1.417,0.561,1.030,0.957,�k��,7.4,��
2017/01/16,21:10,1.084,1.803,1.177,2.047,1.417,0.562,1.030,0.954,�k��,6.8,��
2017/01/16,21:20,1.084,1.803,1.179,2.049,1.418,0.561,1.030,0.953,�k��,7.0,��
2017/01/16,21:30,1.082,1.804,1.179,2.044,1.417,0.561,1.028,0.955,�k��,6.6,��
2017/01/16,21:40,1.084,1.804,1.178,2.045,1.416,0.560,1.028,0.954,�k��,6.8,��
2017/01/16,21:50,1.082,1.802,1.178,2.045,1.416,0.561,1.028,0.956,�k��,6.5,��
2017/01/16,22:00,1.079,1.806,1.178,2.046,1.417,0.561,1.030,0.957,�k��,7.0,��
2017/01/16,22:10,1.084,1.805,1.175,2.045,1.417,0.560,1.030,0.953,�k��,7.2,��
2017/01/16,22:20,1.084,1.799,1.175,2.045,1.415,0.560,1.029,0.955,�k��,7.8,��
2017/01/16,22:30,1.082,1.800,1.175,2.044,1.420,0.559,1.030,0.954,�k��,7.6,��
2017/01/16,22:40,1.081,1.801,1.178,2.045,1.417,0.561,1.029,0.953,�k��,7.6,��
2017/01/16,22:50,1.081,1.803,1.176,2.045,1.418,0.559,1.029,0.955,�k��,7.7,��
2017/01/16,23:00,1.082,1.803,1.176,2.045,1.416,0.559,1.028,0.954,�k��,7.7,��
2017/01/16,23:10,1.081,1.801,1.177,2.046,1.419,0.560,1.029,0.952,�k��,8.5,��
2017/01/16,23:20,1.082,1.801,1.177,2.045,1.416,0.560,1.030,0.954,�k��,7.3,��
2017/01/16,23:30,1.082,1.803,1.176,2.043,1.418,0.558,1.029,0.954,�k��,7.8,��
2017/01/16,23:40,1.080,1.801,1.176,2.044,1.418,0.560,1.029,0.956,�k��,6.9,��
2017/01/16,23:50,1.082,1.800,1.177,2.042,1.414,0.558,1.029,0.955,�k��,8.4,��
